[[{"header":{"parameterUnit":"m.s-1","parameterCategory":1,"la1":30.2991,"la2":30.254,"lo1":-89.0895,"lo2":-89.0444,"dy":0.0017,"dx":0.0017,"nx":28,"ny":28,"refTime":"2024-03-18T03:00:00:Z","depth":0,"parameterNumber":2,"parameterNumberName":"U-component_of_WINDS"},"data":[0,0,0,0,0,0,0,0,0,0,0,0,0,0,0,0,0,0,0,0,0,0,0,0,0,0,0,0,0,0,0,0,0,0,0,0,0,0,0,0,0,0,0,0,0,0,0,0,0,0,0,0,0,0,0,0,0,0,-1.0358,-1.0359,0,-1.0368,-1.0368,-1.0368,-1.035,-1.035,-1.0349,-1.0349,-1.0359,-1.036,-1.0361,0,0,0,0,0,0,0,0,0,0,0,0,0,-1.0326,-1.0327,-1.0358,-1.0359,-1.0359,-1.0368,-1.0368,-1.0369,-1.0351,-1.035,-1.0349,-1.0348,-1.0359,-1.036,-1.0361,0,0,0,0,0,0,0,0,0,0,0,0,0,-1.0339,-1.0327,-1.0358,-1.0351,-1.035,-1.0368,-1.0368,-1.0369,-1.0351,-1.035,-1.0349,-1.0348,-1.0359,-1.036,-1.0361,-1.0387,0,0,-1.0365,-1.0366,0,0,0,0,0,0,0,0,-1.0338,-1.034,-1.0352,-1.0351,-1.0351,-1.0357,-1.0361,-1.0375,-1.0351,-1.0351,-1.0349,-1.0348,-1.0359,-1.0361,-1.0364,-1.0388,-1.0388,-1.0365,-1.0366,-1.0367,-1.0367,0,0,0,0,0,0,0,-1.0337,-1.0339,-1.0362,-1.0352,-1.0351,-1.0348,-1.0348,-1.0364,-1.036,-1.0351,-1.0349,-1.0351,-1.0359,-1.0363,-1.0365,-1.0388,-1.0365,-1.0366,-1.0367,-1.0368,-1.0436,-1.0437,0,0,0,0,0,0,-1.0337,-1.0339,-1.0362,-1.0363,-1.0342,-1.0349,-1.035,-1.0356,-1.036,-1.0359,-1.0351,-1.035,-1.0362,-1.0363,-1.0365,-1.0396,-1.0367,-1.0368,-1.0369,-1.0435,-1.0436,-1.0437,0,0,0,0,0,0,-1.0336,-1.0339,-1.0362,-1.035,-1.0353,-1.0351,-1.0358,-1.0357,-1.0361,-1.036,-1.036,-1.0356,-1.0361,-1.0363,-1.0382,-1.0396,-1.0368,-1.037,-1.0433,-1.0435,-1.0436,-1.0459,0,0,0,0,0,0,-1.0336,-1.0339,-1.0348,-1.0351,-1.0354,-1.0378,-1.0358,-1.0358,-1.0363,-1.0361,-1.0365,-1.0365,-1.036,-1.038,-1.0384,-1.0398,-1.0371,-1.0432,-1.0434,-1.0436,-1.0457,-1.0461,-1.0464,0,0,0,0,0,-1.0334,-1.0354,-1.0349,-1.0352,-1.0365,-1.0379,-1.038,-1.0375,-1.0364,-1.0374,-1.0374,-1.0364,-1.0395,-1.0383,-1.0386,-1.04,-1.0431,-1.0434,-1.0436,-1.0455,-1.046,-1.0464,0,0,0,0,0,0,-1.0352,-1.0354,-1.0348,-1.0369,-1.0374,-1.0376,-1.0387,-1.038,-1.0389,-1.0386,-1.038,-1.0381,-1.0401,-1.0403,-1.039,-1.0427,-1.0411,-1.0414,-1.0425,-1.0429,-1.0433,-1.0432,-1.0372,0,0,0,0,0,-1.0359,-1.037,-1.0371,-1.0389,-1.0392,-1.0389,-1.0395,-1.0391,-1.0396,-1.0398,-1.0399,-1.0405,-1.0416,-1.0423,-1.0433,-1.0458,-1.0459,-1.047,-1.0473,-1.0477,-1.0479,-1.0493,-1.0498,-1.0445,-1.0445,-1.0445,0,0,-1.0372,-1.0374,-1.0381,-1.0393,-1.0396,-1.0408,-1.0391,-1.0404,-1.0413,-1.04,-1.0418,-1.042,-1.0426,-1.0448,-1.0458,-1.045,-1.0494,-1.048,-1.0482,-1.0483,-1.0496,-1.0501,-1.0506,-1.0446,-1.0446,-1.0446,0,0,-1.0402,-1.0405,-1.042,-1.0425,-1.043,-1.0429,-1.0433,-1.0437,-1.0437,-1.0455,-1.0446,-1.0458,-1.0476,-1.0481,-1.0486,-1.0522,-1.0513,-1.0525,-1.0545,-1.0559,-1.0563,-1.0567,-1.058,-1.0584,-1.0528,-1.0528,-1.0528,0,-1.0417,-1.0434,-1.0429,-1.0444,-1.0449,-1.0439,-1.0456,-1.046,-1.0469,-1.0473,-1.0465,-1.0489,-1.0493,-1.0516,-1.0525,-1.053,-1.0535,-1.0524,-1.0563,-1.0567,-1.057,-1.0582,-1.0587,-1.0529,-1.0529,-1.0529,-1.0529,0,-1.0453,-1.0466,-1.0478,-1.0487,-1.0495,-1.051,-1.0508,-1.0517,-1.0513,-1.0513,-1.0533,-1.0537,-1.0548,-1.0554,-1.055,-1.0578,-1.0573,-1.0564,-1.0548,-1.0577,-1.0588,-1.0592,-1.0531,-1.0531,-1.053,-1.053,0,0,-1.0492,-1.05,-1.0505,-1.0509,-1.0516,-1.0526,-1.0542,-1.0553,-1.0561,-1.0568,-1.0582,-1.0599,-1.0592,-1.0598,-1.0595,-1.0607,-1.0636,-1.0597,-1.0597,-1.0603,-1.0668,-1.0674,-1.0679,-1.0631,-1.0632,-1.0633,-1.0667,0,-1.0521,-1.0548,-1.0545,-1.0571,-1.0583,-1.0575,-1.0589,-1.0596,-1.0597,-1.0608,-1.061,-1.0622,-1.0611,-1.0615,-1.0627,-1.0629,-1.0648,-1.0627,-1.0644,-1.0644,-1.0641,-1.0685,-1.069,-1.0722,-1.0671,-1.0672,-1.0673,0,-1.0558,-1.0568,-1.0595,-1.0601,-1.0606,-1.0619,-1.063,-1.0641,-1.0649,-1.0649,-1.0657,-1.0653,-1.067,-1.0655,-1.068,-1.0665,-1.0673,-1.0675,-1.0676,-1.0676,-1.0659,-1.0685,-1.0732,-1.0737,-1.068,-1.0679,-1.0679,0,-1.0584,-1.0603,-1.0622,-1.0626,-1.0635,-1.0644,-1.0648,-1.0655,-1.0663,-1.0673,-1.0678,-1.0691,-1.0697,-1.0708,-1.0707,-1.0696,-1.0732,-1.0717,-1.0733,-1.0733,-1.074,-1.0739,-1.0788,-1.0746,-1.0746,-1.0746,-1.0746,0,-1.0616,-1.0633,-1.0633,-1.0645,-1.0664,-1.0662,-1.0682,-1.0685,-1.0692,-1.0705,-1.0699,-1.0712,-1.0711,-1.0724,-1.0724,-1.0745,-1.0748,-1.0749,-1.0748,-1.0749,-1.0748,-1.0752,-1.0749,-1.0747,-1.0747,-1.0747,-1.0747,0,-1.0646,-1.0647,-1.0667,-1.0675,-1.0677,-1.0691,-1.0698,-1.0709,-1.0711,-1.0728,-1.0732,-1.0735,-1.075,-1.0752,-1.0769,-1.0769,-1.0794,-1.0792,-1.0791,-1.079,-1.0806,-1.0805,-1.0858,-1.0865,-1.082,-1.0821,-1.0821,0,-1.0666,-1.0679,-1.0688,-1.0696,-1.0701,-1.0714,-1.0722,-1.0722,-1.0731,-1.0743,-1.0753,-1.0768,-1.0779,-1.0805,-1.0809,-1.0823,-1.0821,-1.0839,-1.0822,-1.0823,-1.082,-1.0819,-1.0821,-1.0841,-1.0841,-1.0842,-1.0842,0,-1.0701,-1.0702,-1.0713,-1.0726,-1.0736,-1.0746,-1.0755,-1.0763,-1.0764,-1.0774,-1.079,-1.0799,-1.0818,-1.0833,-1.0847,-1.0852,-1.0848,-1.0848,-1.0852,-1.0852,-1.085,-1.0851,-1.0799,-1.0846,-1.0846,-1.0845,-1.0845,-1.0845,-1.0726,-1.0737,-1.0746,-1.076,-1.0767,-1.0777,-1.0788,-1.0793,-1.0806,-1.0821,-1.0821,-1.0838,-1.0848,-1.0867,-1.0874,-1.0888,-1.0882,-1.0888,-1.089,-1.0891,-1.0893,-1.085,-1.0891,-1.0891,-1.0891,-1.0891,-1.089,0,-1.076,-1.0766,-1.0779,-1.0793,-1.0804,-1.08,-1.0811,-1.0821,-1.0836,-1.0846,-1.0858,-1.0877,-1.0892,-1.0899,-1.0915,-1.0925,-1.0923,-1.0929,-1.0927,-1.0929,-1.0897,-1.0892,-1.093,-1.093,-1.093,-1.093,-1.093,-1.093,-1.0779,-1.0799,-1.0801,-1.0825,-1.0831,-1.0848,-1.0854,-1.0864,-1.0872,-1.0893,-1.0906,-1.0911,-1.092,-1.0936,-1.0951,-1.0953,-1.0958,-1.0965,-1.0965,-1.0935,-1.0931,-1.0927,-1.0922,-1.0966,-1.0966,-1.0996,-1.0996,-1.0996]},{"header":{"parameterUnit":"m.s-1","parameterCategory":1,"la1":30.2991,"la2":30.254,"lo1":-89.0895,"lo2":-89.0444,"dy":0.0017,"dx":0.0017,"nx":28,"ny":28,"refTime":"2024-03-18T03:00:00:Z","depth":0,"parameterNumber":3,"parameterNumberName":"V-component_of_WINDS"},"data":[0,0,0,0,0,0,0,0,0,0,0,0,0,0,0,0,0,0,0,0,0,0,0,0,0,0,0,0,0,0,0,0,0,0,0,0,0,0,0,0,0,0,0,0,0,0,0,0,0,0,0,0,0,0,0,0,0,0,-1.0167,-1.0167,0,-1.019,-1.019,-1.019,-1.0229,-1.0229,-1.023,-1.0231,-1.0253,-1.0253,-1.0253,0,0,0,0,0,0,0,0,0,0,0,0,0,-1.0156,-1.0156,-1.0167,-1.0167,-1.0168,-1.019,-1.019,-1.019,-1.0228,-1.0229,-1.023,-1.0231,-1.0253,-1.0253,-1.0253,0,0,0,0,0,0,0,0,0,0,0,0,0,-1.0168,-1.0156,-1.0167,-1.0189,-1.0192,-1.019,-1.019,-1.019,-1.0228,-1.0229,-1.023,-1.0231,-1.0254,-1.0253,-1.0253,-1.0231,0,0,-1.0253,-1.0253,0,0,0,0,0,0,0,0,-1.0167,-1.0168,-1.0186,-1.0188,-1.019,-1.0207,-1.0194,-1.0204,-1.0228,-1.0214,-1.0231,-1.0232,-1.0237,-1.0239,-1.024,-1.0232,-1.0233,-1.0253,-1.0253,-1.0253,-1.0253,0,0,0,0,0,0,0,-1.0166,-1.0167,-1.0176,-1.0186,-1.0189,-1.0198,-1.0201,-1.0196,-1.0219,-1.0216,-1.0218,-1.0221,-1.0239,-1.024,-1.0241,-1.0234,-1.0253,-1.0253,-1.0253,-1.0253,-1.0208,-1.0206,0,0,0,0,0,0,-1.0162,-1.0166,-1.0175,-1.0177,-1.0181,-1.0197,-1.02,-1.0201,-1.022,-1.0224,-1.022,-1.0222,-1.024,-1.0241,-1.0242,-1.0217,-1.0253,-1.0253,-1.0253,-1.0209,-1.0207,-1.0206,0,0,0,0,0,0,-1.0162,-1.0162,-1.0174,-1.0172,-1.0175,-1.0196,-1.0196,-1.0201,-1.0203,-1.0223,-1.0227,-1.0217,-1.0241,-1.0242,-1.0234,-1.0219,-1.0253,-1.0253,-1.021,-1.0208,-1.0207,-1.0168,0,0,0,0,0,0,-1.0161,-1.0162,-1.0155,-1.0172,-1.0174,-1.0166,-1.0196,-1.02,-1.0202,-1.0206,-1.0222,-1.0225,-1.0242,-1.0233,-1.0233,-1.0219,-1.0253,-1.0211,-1.0209,-1.0207,-1.017,-1.0165,-1.016,0,0,0,0,0,-1.0161,-1.0143,-1.0154,-1.0155,-1.0165,-1.0165,-1.0166,-1.0186,-1.0201,-1.0193,-1.0206,-1.0225,-1.022,-1.0232,-1.0233,-1.0218,-1.0213,-1.021,-1.0207,-1.0173,-1.0166,-1.016,0,0,0,0,0,0,-1.0124,-1.0146,-1.0158,-1.0146,-1.0153,-1.0171,-1.0163,-1.0178,-1.0182,-1.0185,-1.0209,-1.0212,-1.02,-1.0208,-1.0221,-1.0197,-1.0219,-1.0216,-1.0193,-1.0186,-1.0181,-1.018,-1.0253,0,0,0,0,0,-1.0114,-1.0112,-1.0131,-1.0118,-1.0121,-1.0141,-1.0141,-1.0156,-1.0164,-1.0168,-1.018,-1.0187,-1.0187,-1.0187,-1.0189,-1.0171,-1.0175,-1.0161,-1.0156,-1.0152,-1.0149,-1.014,-1.0134,-1.0197,-1.0198,-1.0198,0,0,-1.0094,-1.0106,-1.0103,-1.0111,-1.0118,-1.0115,-1.0143,-1.0139,-1.0137,-1.0167,-1.016,-1.0168,-1.0178,-1.0165,-1.016,-1.0171,-1.0132,-1.0148,-1.0145,-1.0145,-1.0137,-1.0131,-1.0125,-1.0196,-1.0196,-1.0196,0,0,-1.0057,-1.0065,-1.0055,-1.0062,-1.0072,-1.0085,-1.0083,-1.0098,-1.0105,-1.0098,-1.012,-1.0117,-1.0117,-1.0123,-1.0126,-1.0088,-1.0105,-1.0088,-1.0061,-1.0052,-1.0047,-1.0042,-1.0029,-1.0024,-1.0085,-1.0085,-1.0085,0,-1.0031,-1.0028,-1.0048,-1.0042,-1.0045,-1.0071,-1.006,-1.0065,-1.0076,-1.0077,-1.0089,-1.0089,-1.0097,-1.0085,-1.0076,-1.0077,-1.0074,-1.0087,-1.0046,-1.0042,-1.0038,-1.0025,-1.002,-1.0083,-1.0083,-1.0083,-1.0083,0,-0.9995,-0.9992,-0.9983,-0.9992,-0.9993,-0.9985,-1.0003,-1.0001,-1.0015,-1.0026,-1.0017,-1.0028,-1.0032,-1.003,-1.0043,-1.0019,-1.0026,-1.0041,-1.0064,-1.0029,-1.0018,-1.0013,-1.008,-1.008,-1.0081,-1.0082,0,0,-0.9937,-0.9956,-0.9952,-0.9956,-0.9969,-0.9967,-0.9959,-0.9962,-0.996,-0.9966,-0.996,-0.9958,-0.9972,-0.9975,-0.9989,-0.9981,-0.995,-0.9998,-0.9998,-0.9988,-0.9923,-0.9912,-0.9906,-0.996,-0.996,-0.9959,-0.9922,0,-0.9903,-0.9892,-0.9909,-0.9893,-0.989,-0.9914,-0.9907,-0.9913,-0.9923,-0.9921,-0.9932,-0.993,-0.9949,-0.9951,-0.9944,-0.9955,-0.9937,-0.9958,-0.9955,-0.9955,-0.9953,-0.99,-0.9888,-0.9853,-0.9918,-0.9917,-0.9917,0,-0.9862,-0.9865,-0.9849,-0.9862,-0.9861,-0.9855,-0.9858,-0.9856,-0.9864,-0.9871,-0.9874,-0.989,-0.9882,-0.9903,-0.9892,-0.9906,-0.9905,-0.991,-0.9909,-0.9911,-0.9934,-0.99,-0.9843,-0.9837,-0.991,-0.991,-0.9911,0,-0.9822,-0.9822,-0.9812,-0.9815,-0.9829,-0.9823,-0.9829,-0.9837,-0.9838,-0.984,-0.984,-0.9842,-0.9843,-0.9843,-0.9859,-0.9873,-0.9846,-0.9869,-0.9852,-0.9852,-0.9847,-0.9847,-0.9789,-0.9845,-0.9845,-0.9845,-0.9845,0,-0.9782,-0.9772,-0.9794,-0.9788,-0.9776,-0.9795,-0.9783,-0.9791,-0.9797,-0.9793,-0.9813,-0.9808,-0.9828,-0.9825,-0.9837,-0.9826,-0.9827,-0.9832,-0.9836,-0.9831,-0.983,-0.9832,-0.9835,-0.9844,-0.9844,-0.9844,-0.9844,0,-0.9736,-0.9751,-0.9742,-0.9755,-0.9758,-0.9749,-0.976,-0.9754,-0.9764,-0.9758,-0.9758,-0.9774,-0.9771,-0.9786,-0.9786,-0.9794,-0.9777,-0.9785,-0.9775,-0.9778,-0.976,-0.9762,-0.9702,-0.9695,-0.9755,-0.9754,-0.9753,0,-0.9711,-0.9703,-0.9715,-0.9713,-0.9718,-0.9715,-0.9715,-0.9732,-0.9731,-0.9738,-0.9731,-0.973,-0.973,-0.9725,-0.9736,-0.9736,-0.9743,-0.9722,-0.9744,-0.9739,-0.9743,-0.9744,-0.9743,-0.9718,-0.9717,-0.9717,-0.9716,0,-0.9664,-0.9671,-0.967,-0.9671,-0.9671,-0.9673,-0.9676,-0.9673,-0.9692,-0.969,-0.9687,-0.9687,-0.9686,-0.9685,-0.9686,-0.9692,-0.9707,-0.9709,-0.9705,-0.9701,-0.9696,-0.9698,-0.9764,-0.9711,-0.9711,-0.9712,-0.9712,-0.9712,-0.9627,-0.9621,-0.9628,-0.9627,-0.963,-0.9632,-0.9628,-0.9637,-0.9635,-0.9636,-0.9646,-0.9641,-0.9646,-0.965,-0.9654,-0.965,-0.966,-0.9654,-0.9653,-0.9651,-0.9648,-0.9695,-0.965,-0.965,-0.965,-0.965,-0.965,0,-0.9582,-0.9587,-0.9585,-0.9588,-0.9587,-0.96,-0.9604,-0.9601,-0.9597,-0.9601,-0.96,-0.9596,-0.9594,-0.9604,-0.9603,-0.9598,-0.9605,-0.9597,-0.9598,-0.9599,-0.9639,-0.9643,-0.9592,-0.9592,-0.9592,-0.9592,-0.9592,-0.9592,-0.9558,-0.9548,-0.9555,-0.9547,-0.9552,-0.9547,-0.9548,-0.955,-0.9553,-0.9548,-0.9546,-0.9552,-0.9558,-0.9558,-0.9556,-0.9559,-0.9558,-0.9548,-0.9553,-0.9591,-0.9596,-0.9602,-0.9605,-0.9547,-0.9547,-0.9513,-0.9513,-0.9513]}]]